Regina,

5:52 AM CST on July 28, 2017 (GMT -0600)
Regina

Weather History for CYQR - March, 2013

Change the Weather History Date:

Sunday, March 10, 2013

  Actual Average Record
Temperature  
Mean Temperature 5 °F -  
Max Temperature 17 °F 38 °F 57 °F (2016)
Min Temperature -7 °F 17 °F -25 °F (2009)
Degree Days  
Heating Degree Days 60    
Moisture  
Dew Point 2 °F    
Average Humidity 81    
Maximum Humidity 93    
Minimum Humidity 62    
Precipitation  
Precipitation 0.00 in 0.02 in - ()
Sea Level Pressure  
Sea Level Pressure 30.27 in    
Wind  
Wind Speed 5 mph ()    
Max Wind Speed 17 mph    
Max Gust Speed 18 mph    
Visibility 5.9 miles    
Events Fog    
Averages and records for this station are not official NWS values.
T = Trace of Precipitation, MM = Missing Value Source: Averaged Metar Reports

Daily Weather History Graph

Daily Weather History Graph

Search for Another Location

Airport or City:

Trip Planner

Search our weather history database for the weather conditions in past years. The results will help you decide how hot, cold, wet, or windy it might be!

Date:

Astronomy

Mar. 10, 2013 Rise Set
Actual Time 7:22 AM CST 6:55 PM CST
Civil Twilight 6:50 AM CST 7:28 PM CST
Nautical Twilight 6:12 AM CST 8:06 PM CST
Astronomical Twilight 5:33 AM CST 8:45 PM CST
Moon 6:27 AM CST (3/10) 6:05 PM CST (3/10)
Length of Visible Light 12h 38m
Length of Day
11h 33m
Waning Crescent, 1% of the Moon is Illuminated
Mar 10
Waning Crescent
Mar 11
New
Mar 19
First Quarter
Mar 27
Full
Apr 2
Last Quarter

Hourly Weather History & Observations

Time (CST) Temp. Windchill Dew Point Humidity Pressure Visibility Wind Dir Wind Speed Gust Speed Precip Events Conditions
12:00 AM -5 °F - -10 °F 71% 30.40 in 3 mi WSW 5.8 mph - -  
12:00 AM -4.0 °F -14.6 °F -9.4 °F 78% 30.40 in 12.0 mi WSW 4.6 mph - N/A   Partly Cloudy
1:00 AM -4.0 °F - -11.2 °F 71% 30.38 in 10.0 mi Calm Calm - N/A   Clear
1:14 AM -4.0 °F - - N/A% - 10.0 mi Calm Calm - N/A   Partly Cloudy
2:00 AM -4.0 °F - -9.4 °F 78% 30.39 in 5.0 mi Calm Calm - N/A   Scattered Clouds
2:40 AM -7.6 °F - - N/A% - 5.0 mi West 2.3 mph - N/A   Mostly Cloudy
4:00 AM -4.0 °F - -7.6 °F 85% 30.39 in 6.0 mi Calm Calm - N/A   Overcast
5:00 AM -4.0 °F - -11.2 °F 71% 30.38 in 6.0 mi SW 2.3 mph - N/A Fog Overcast
6:00 AM -2 °F - -8 °F 62% 30.38 in 1 mi Calm Calm - -   Overcast
6:00 AM -2.2 °F - -9.4 °F 71% 30.38 in 5.0 mi Calm Calm - N/A Fog Overcast
6:22 AM -0.4 °F - - N/A% - 4.0 mi SSE 2.3 mph - N/A Fog Overcast
6:47 AM -2.2 °F -10.4 °F - N/A% - 2.0 mi SSE 3.5 mph - N/A   Overcast
7:00 AM -0.4 °F -10.4 °F -7.6 °F 72% 30.38 in 1.8 mi SSE 4.6 mph - N/A   Overcast
8:00 AM -0.4 °F -13.4 °F -5.8 °F 78% 30.37 in 1.2 mi SE 6.9 mph - N/A   Overcast
8:05 AM 5.0 °F -6.9 °F - N/A% - 0.8 mi SE 6.9 mph - N/A   Overcast
8:17 AM -0.4 °F -13.4 °F - N/A% - 0.4 mi SE 6.9 mph - N/A Fog Light Freezing Fog
9:00 AM 1.4 °F -6.2 °F -4.0 °F 78% 30.37 in 0.6 mi SE 3.5 mph - N/A   Overcast
9:26 AM 3.2 °F -6.2 °F - N/A% - 1.0 mi SSE 4.6 mph - N/A   Overcast
9:48 AM 3.2 °F -10.3 °F - N/A% - 1.2 mi SE 8.1 mph - N/A   Overcast
10:00 AM 3.2 °F -7.8 °F -2.2 °F 78% 30.37 in 1.2 mi SSE 5.8 mph - N/A   Overcast
10:26 AM 3.2 °F -9.1 °F - N/A% - 1.5 mi SE 6.9 mph - N/A   Overcast
10:42 AM 3.2 °F -10.3 °F - N/A% - 2.5 mi SE 8.1 mph - N/A   Mostly Cloudy
11:00 AM 3.2 °F -10.3 °F -0.4 °F 85% 30.36 in 2.5 mi SE 8.1 mph - N/A   Mostly Cloudy
12:00 PM 5 °F - 1 °F 78% 30.33 in 2 mi SE 11.5 mph - -  
12:00 PM 5.0 °F -10.8 °F 1.4 °F 85% 30.34 in 3.0 mi SE 11.5 mph - N/A   Mostly Cloudy
1:00 PM 8.6 °F -7.0 °F 5.0 °F 85% 30.31 in 6.0 mi SE 12.7 mph - N/A   Mostly Cloudy
2:00 PM 10.4 °F -4.8 °F 8.6 °F 92% 30.27 in 15.0 mi SE 12.7 mph - N/A   Mostly Cloudy
3:00 PM 14.0 °F -0.2 °F 10.4 °F 86% 30.23 in 8.0 mi SSE 12.7 mph - N/A   Overcast
5:00 PM 15.8 °F 2.1 °F 14.0 °F 93% 30.16 in 10.0 mi SE 12.7 mph - N/A   Overcast
6:00 PM 17 °F - 14 °F 82% 30.11 in 4 mi SSE 13.8 mph - -  
6:00 PM 17.6 °F 3.7 °F 14.0 °F 86% 30.12 in 10.0 mi SSE 13.8 mph - N/A   Overcast
7:00 PM 17.6 °F 5.0 °F 14.0 °F 86% 30.10 in 12.0 mi SE 11.5 mph - N/A   Overcast
8:00 PM 17.6 °F 3.2 °F 14.0 °F 86% 30.09 in 15.0 mi SSE 15.0 mph - N/A   Overcast
9:00 PM 17.6 °F 2.2 °F 14.0 °F 86% 30.04 in 15.0 mi SE 17.3 mph - N/A   Overcast
10:00 PM 17.6 °F 5.0 °F 14.0 °F 86% 30.01 in 15.0 mi SSE 11.5 mph 18.4 mph N/A   Overcast
11:00 PM 17.6 °F 3.2 °F 14.0 °F 86% 29.99 in 15.0 mi SE 15.0 mph - N/A   Overcast